Punta Gorda, FL

8:27 AM EDT on June 29, 2017 (GMT -0400)
Charlotte County

Weather History for KPGD - January, 2014

Change the Weather History Date:

Wednesday, January 22, 2014

  Actual Average Record
Temperature  
Mean Temperature 54 °F -  
Max Temperature 63 °F 71 °F 84 °F (1999)
Min Temperature 43 °F 47 °F 27 °F (2009)
Degree Days  
Heating Degree Days 11    
Growing Degree Days 4 (Base 50)    
Moisture  
Dew Point 38 °F    
Average Humidity 59    
Maximum Humidity 76    
Minimum Humidity 30    
Precipitation  
Precipitation 0.00 in - - ()
Sea Level Pressure  
Sea Level Pressure 30.12 in    
Wind  
Wind Speed 9 mph (NNW)    
Max Wind Speed 10 mph    
Max Gust Speed 18 mph    
Visibility 10 miles    
Events      
Averages and records for this station are not official NWS values.
T = Trace of Precipitation, MM = Missing Value Source: NWS Daily Summary

Daily Weather History Graph

Daily Weather History Graph

Search for Another Location

Airport or City:

Trip Planner

Search our weather history database for the weather conditions in past years. The results will help you decide how hot, cold, wet, or windy it might be!

Date:

Astronomy

Jan. 22, 2014 Rise Set
Actual Time 7:17 AM EST 6:02 PM EST
Civil Twilight 6:52 AM EST 6:26 PM EST
Nautical Twilight 6:24 AM EST 6:55 PM EST
Astronomical Twilight 5:56 AM EST 7:22 PM EST
Moon 11:53 PM EST (1/22) 10:54 AM EST (1/22)
Length of Visible Light 11h 34m
Length of Day
10h 44m
Waning Gibbous, 65% of the Moon is Illuminated
Jan 22
Waning Gibbous
Jan 24
Last Quarter
Jan 30
New
Feb 6
First Quarter
Feb 14
Full

Hourly Weather History & Observations

Time (EST) Temp. Windchill Dew Point Humidity Pressure Visibility Wind Dir Wind Speed Gust Speed Precip Events Conditions
12:53 AM 59.0 °F - 50.0 °F 72% 29.98 in 10.0 mi NW 10.4 mph - N/A   Overcast
1:53 AM 55.9 °F - 46.0 °F 69% 29.99 in 10.0 mi NW 10.4 mph - N/A   Clear
2:53 AM 53.1 °F - 44.1 °F 71% 30.00 in 10.0 mi NNW 9.2 mph - N/A   Clear
3:53 AM 52.0 °F - 42.1 °F 69% 30.01 in 10.0 mi NNW 8.1 mph - N/A   Clear
4:53 AM 50.0 °F - 41.0 °F 71% 30.04 in 10.0 mi NNW 8.1 mph - N/A   Clear
5:53 AM 50.0 °F - 39.9 °F 68% 30.06 in 10.0 mi North 9.2 mph - N/A   Clear
6:53 AM 48.9 °F - 39.0 °F 69% 30.09 in 10.0 mi NNW 8.1 mph - N/A   Clear
7:53 AM 50.0 °F - 39.0 °F 66% 30.11 in 10.0 mi North 9.2 mph - N/A   Clear
8:53 AM 52.0 °F - 39.0 °F 61% 30.14 in 10.0 mi North 9.2 mph - N/A   Clear
9:53 AM 54.0 °F - 39.0 °F 57% 30.16 in 10.0 mi NNW 10.4 mph - N/A   Clear
10:53 AM 55.9 °F - 37.9 °F 51% 30.17 in 10.0 mi NNW 8.1 mph - N/A   Clear
11:53 AM 57.9 °F - 37.0 °F 46% 30.16 in 10.0 mi NW 10.4 mph - N/A   Clear
12:53 PM 59.0 °F - 36.0 °F 42% 30.14 in 10.0 mi Variable 3.5 mph - N/A   Clear
1:53 PM 63.0 °F - 33.1 °F 33% 30.12 in 10.0 mi WNW 10.4 mph 18.4 mph N/A   Clear
2:53 PM 63.0 °F - 30.9 °F 30% 30.11 in 10.0 mi NW 8.1 mph - N/A   Clear
3:53 PM 62.1 °F - 30.9 °F 31% 30.12 in 10.0 mi WNW 8.1 mph - N/A   Clear
4:53 PM 60.1 °F - 33.1 °F 36% 30.15 in 10.0 mi NW 9.2 mph - N/A   Clear
5:53 PM 55.0 °F - 35.1 °F 47% 30.15 in 10.0 mi NNW 4.6 mph - N/A   Clear
6:53 PM 50.0 °F - 39.0 °F 66% 30.17 in 10.0 mi NW 6.9 mph - N/A   Clear
7:53 PM 48.9 °F - 37.9 °F 66% 30.20 in 10.0 mi NW 9.2 mph - N/A   Clear
8:53 PM 46.9 °F - 37.0 °F 68% 30.22 in 10.0 mi WNW 6.9 mph - N/A   Clear
9:53 PM 45.0 °F 41.8 °F 37.0 °F 74% 30.22 in 10.0 mi NW 5.8 mph - N/A   Clear
10:53 PM 45.0 °F 40.1 °F 37.0 °F 74% 30.23 in 10.0 mi NNW 9.2 mph - N/A   Clear
11:53 PM 43.0 °F 38.2 °F 36.0 °F 76% 30.22 in 10.0 mi NNW 8.1 mph - N/A   Clear